This is the latest recevied weather packets stored in our database for station/object E20YUC-1. If no packets are shown the sender has not sent any weather packets the latest 10 day(s).
| Time | Temp. | Humidity | Pressure | Rain* | Wind** | Luminosity | Snow |
|---|---|---|---|---|---|---|---|
| 1787703474 | 27.78° C | 76% | 995.3 hPa | 0 mm | 1.34 m/s, 0° | - | - |
| 1787703175 | 27.78° C | 76% | 995.2 hPa | 0 mm | 3.13 m/s, 0° | - | - |
| 1787702574 | 27.78° C | 77% | 995 hPa | 0 mm | 0 m/s | - | - |
| 1787702273 | 27.78° C | 77% | 994.8 hPa | 0 mm | 2.24 m/s, 0° | - | - |
| 1787701973 | 27.78° C | 77% | 994.8 hPa | 0 mm | 2.24 m/s, 0° | - | - |
| 1787701675 | 27.78° C | 77% | 994.8 hPa | 0 mm | 5.36 m/s, 0° | - | - |
| 1787701373 | 27.78° C | 77% | 995 hPa | 0 mm | 0 m/s | - | - |
| 1787701073 | 27.78° C | 77% | 994.9 hPa | 0 mm | 0 m/s | - | - |
| 1787700473 | 27.78° C | 77% | 994.8 hPa | 0 mm | 0 m/s | - | - |
| 1787700175 | 27.78° C | 77% | 994.8 hPa | 0 mm | 2.24 m/s, 0° | - | - |
| 1787699873 | 27.78° C | 77% | 994.8 hPa | 0 mm | 1.34 m/s, 0° | - | - |
| 1787699573 | 27.78° C | 77% | 994.8 hPa | 0 mm | 1.34 m/s, 0° | - | - |
| 1787698973 | 27.78° C | 77% | 994.9 hPa | 0 mm | 0 m/s | - | - |
| 1787698675 | 27.78° C | 76% | 994.9 hPa | 0 mm | 0 m/s | - | - |
| 1787698373 | 27.78° C | 76% | 994.8 hPa | 0 mm | 0.45 m/s, 0° | - | - |
| 1787698073 | 27.78° C | 76% | 994.9 hPa | 0 mm | 1.34 m/s, 0° | - | - |
| 1787697473 | 27.78° C | 76% | 994.7 hPa | 0 mm | 0 m/s | - | - |
| 1787697174 | 27.78° C | 76% | 994.7 hPa | 0 mm | 2.68 m/s, 0° | - | - |
| 1787696873 | 27.78° C | 76% | 994.6 hPa | 0 mm | 1.79 m/s, 0° | - | - |
| 1787696572 | 27.78° C | 76% | 994.6 hPa | 0 mm | 1.79 m/s, 0° | - | - |
| 1787695972 | 27.78° C | 76% | 994.5 hPa | 0 mm | 2.68 m/s, 0° | - | - |
| 1787695674 | 27.78° C | 75% | 994.4 hPa | 0 mm | 0.89 m/s, 0° | - | - |
| 1787695372 | 27.78° C | 75% | 994.4 hPa | 0 mm | 2.68 m/s, 0° | - | - |
| 1787694772 | 27.78° C | 75% | 994.4 hPa | 0 mm | 4.02 m/s, 0° | - | - |
| 1787694472 | 27.78° C | 75% | 994.4 hPa | 0 mm | 1.34 m/s, 0° | - | - |
* Rain latest hour (hover to see other rain measurements)
** Current wind speed in m/s (hover to see current wind gust speed)